Location: *
(49.5667°N, 1.3667°W)
Time: 01:46:47
(UTC+00:00)

Cosmos 1437 Rocket - Pass Details

Date: 20 September 2019
Orbit: 506 x 563 km, 81.2° (Epoch: 13 October)

Event Time Altitude Azimuth Distance (km) Brightness Sun altitude
Rises 18:58:42 0° 0° (N) 2,644 6.5 -8.9°
Reaches altitude 10° 19:01:24 10° 20° (NNE) 1,744 5.3 -9.3°
Maximum altitude 19:04:06 18° 65° (ENE) 1,300 4.3 -9.7°
Enters shadow 19:05:48 14° 97° (E) 1,485 4.4 -10.0°
